DW0331 Weather Reports


time (UTC)temp
C
wind
direction
speed
KPH
gust
KPH
rain 1hr
cm
rain 24hr
cm
rain mn
cm
humidity
%
barometer
mb
20260504042004 8 0 0.0 17.7 0.00 0.00 0.00 82 1006.1
20260504041004 8 1 1.6 17.7 0.00 0.00 0.00 80 1006.2
20260504040006 8 1 1.6 9.7 0.00 0.00 0.00 80 1006.3
20260504035005 8 0 0.0 8.0 0.00 0.00 0.00 80 1006.4
20260504034005 8 1 1.6 17.7 0.00 0.00 0.00 79 1006.6
20260504033004 8 1 1.6 16.1 0.00 0.00 0.00 79 1006.4
20260504032004 8 1 1.6 19.3 0.00 0.00 0.00 79 1006.2
20260504031004 8 1 3.2 14.5 0.00 0.00 0.00 77 1006.3
20260504030004 8 1 1.6 9.7 0.00 0.00 0.00 76 1006.4
20260504025005 8 1 3.2 16.1 0.00 0.00 0.00 74 1006.5
20260504024004 8 1 6.4 24.1 0.00 0.00 0.00 74 1006.5
20260504023005 8 1 1.6 25.7 0.00 0.00 0.00 76 1006.6
20260504022005 7 0 0.0 11.3 0.00 0.00 0.00 76 1006.7
20260504021005 7 1 3.2 20.9 0.00 0.00 0.00 75 1006.8
20260504015004 8 1 4.8 20.9 0.00 0.00 0.00 75 1006.8
20260504014004 8 1 6.4 22.5 0.00 0.00 0.00 76 1006.8
20260504013005 8 1 1.6 16.1 0.00 0.00 0.00 75 1006.8
20260504012004 8 1 3.2 25.7 0.00 0.00 0.00 75 1006.8
20260504011005 8 1 8.0 20.9 0.00 0.00 0.00 75 1006.7
20260504010005 8 1 9.7 27.4 0.00 0.00 0.00 76 1006.7
20260504005004 8 0 0.0 14.5 0.00 0.00 0.00 73 1006.6
20260504004004 8 1 3.2 16.1 0.00 0.00 0.00 73 1006.4
20260504003004 9 1 3.2 16.1 0.00 0.00 0.00 71 1006.4
20260504001004 9 1 1.6 19.3 0.00 0.00 0.00 65 1006.5
20260504000004 9 1 8.0 24.1 0.00 0.00 0.00 61 1006.5
20260503235004 10 1 9.7 22.5 0.00 0.00 0.00 61 1006.5
20260503233004 10 359 16.1 30.6 0.00 0.00 0.00 59 1006.4
20260503232004 10 333 16.1 30.6 0.00 0.00 0.00 57 1006.4
20260503230004 11 217 16.1 32.2 0.00 0.00 0.00 52 1006.3
20260503225004 11 222 16.1 30.6 0.00 0.00 0.00 55 1006.3
20260503224004 12 225 9.7 24.1 0.00 0.00 0.00 47 1006.1
20260503220004 12 220 11.3 24.1 0.00 0.03 0.00 45 1006.1
20260503214004 11 205 20.9 35.4 0.00 0.05 0.00 51 1006.1
20260503213004 11 208 19.3 35.4 0.00 0.05 0.00 54 1006.2
20260503212004 11 209 20.9 38.6 0.00 0.05 0.00 55 1006.1
20260503211004 11 208 19.3 32.2 0.00 0.05 0.00 54 1006.2
20260503210005 11 208 22.5 40.2 0.00 0.05 0.00 55 1006.1
20260503204004 11 209 29.0 46.7 0.00 0.05 0.00 58 1006.4
20260503203004 11 206 25.7 43.5 0.00 0.05 0.00 53 1006.5
20260503200005 11 208 25.7 41.8 0.00 0.05 0.00 52 1006.9
20260503195004 10 204 25.7 41.8 0.00 0.05 0.00 53 1007.0
20260503194004 10 204 22.5 40.2 0.00 0.05 0.00 53 1007.2
20260503193004 10 196 27.4 37.0 0.00 0.05 0.00 53 1007.4
20260503192004 10 196 30.6 41.8 0.00 0.05 0.00 53 1007.6
20260503191004 10 208 22.5 37.0 0.00 0.05 0.00 50 1007.7
20260503185004 10 203 29.0 41.8 0.00 0.05 0.00 52 1008.0
20260503184005 10 212 25.7 38.6 0.00 0.05 0.00 50 1008.0
20260503183004 10 213 20.9 37.0 0.00 0.05 0.00 52 1008.2
20260503182004 10 211 22.5 41.8 0.00 0.05 0.00 48 1008.3
20260503175004 10 199 22.5 37.0 0.00 0.05 0.00 49 1008.3
20260503174004 10 207 22.5 38.6 0.00 0.05 0.00 45 1008.4
20260503173004 10 206 19.3 30.6 0.00 0.05 0.00 48 1008.5
20260503172004 10 222 14.5 27.4 0.00 0.05 0.00 49 1008.6
20260503171004 10 202 8.0 20.9 0.00 0.05 0.00 42 1008.7
20260503151004 10 224 1.6 14.5 0.00 0.05 0.00 44 1010.3
20260503131004 7 277 1.6 16.1 0.00 0.05 0.00 57 1011.1
20260503081004 3 0 0.0 0.0 0.00 0.05 0.00 75 1011.0
20260503072003 4 0 0.0 0.0 0.00 0.05 0.00 74 1011.0
20260503071004 4 0 0.0 0.0 0.00 0.05 0.00 73 1011.0
20260503055004 5 0 0.0 0.0 0.00 0.05 0.00 72 1011.2
20260503054004 5 0 0.0 0.0 0.00 0.05 0.00 72 1011.3
20260503053004 5 0 0.0 0.0 0.00 0.05 0.00 72 1011.3
20260503052004 5 0 0.0 0.0 0.00 0.05 0.00 73 1011.4
20260503050009 5 0 0.0 0.0 0.00 0.05 0.00 75 1011.5
20260503045009 5 0 0.0 0.0 0.00 0.05 0.00 75 1011.5
20260503044009 5 0 0.0 0.0 0.00 0.05 0.00 75 1011.6